Date String (YYYY-MM-DD hh:mm:ss) UTC,Instrument flags,Ambient pressure (hPa),Sample flow (lpm),Bypass flow (lpm),Sample temperature (°C),Ambient temperature (°C),ASC tube jacket temperature (°C),LED temperature (°C),Box temperature (°C),Sample RH (%),Span deviation,Mass concentration (μg/m³),Mass concentration (μg/m³),Mass concentration (μg/m³)
DateTimeUTC,F1_M11,P_M11,Q1_M11,Q2_M11,T1_M11,T2_M11,T3_M11,T4_M11,T5_M11,U1_M11,ZSPAN_M11,X0_M11,X2_M11,X1_M11
2023-04-27 10:00:00,,0826.4,4.99,0.00,23.9,22.5,00.0,32.2,25.5,17.1,0000.0,0006.00,0003.45,0002.85
2023-04-27 10:01:00,,0826.4,4.99,0.00,23.9,22.5,00.0,32.2,25.5,17.1,0000.0,0006.10,0003.43,0002.80
2023-04-27 10:02:00,,0826.4,5.00,0.00,23.9,22.5,00.0,32.2,25.5,17.1,0000.0,0005.97,0003.38,0002.76
2023-04-27 10:03:00,,0826.4,5.00,0.00,23.9,22.5,00.0,32.2,25.5,16.9,0000.0,0005.80,0003.37,0002.76
2023-04-27 10:04:00,,0826.4,5.00,0.00,23.9,22.5,00.0,32.2,25.5,16.9,0000.0,0005.83,0003.37,0002.76
2023-04-27 10:05:00,,0826.4,5.00,0.00,23.9,22.5,00.0,32.2,25.5,17.2,0000.0,0005.94,0003.40,0002.78
2023-04-27 10:06:00,,0826.4,5.00,0.00,23.9,22.5,00.0,32.2,25.5,17.8,0000.0,0006.28,0003.43,0002.80
2023-04-27 10:07:00,,0826.4,5.01,0.00,23.9,22.5,00.0,32.2,25.5,17.3,0000.0,0006.46,0003.46,0002.81
2023-04-27 10:08:00,,0826.4,5.00,0.00,23.9,22.5,00.0,32.3,25.6,17.1,0000.0,0006.67,0003.47,0002.80
2023-04-27 10:09:00,,0826.4,5.01,0.00,24.0,22.6,00.0,32.3,25.6,16.9,0000.0,0007.58,0003.49,0002.80
2023-04-27 10:10:00,,0826.4,5.01,0.00,24.0,22.6,00.0,32.3,25.5,16.7,0000.0,0007.66,0003.49,0002.81
2023-04-27 10:11:00,,0826.4,5.00,0.00,24.0,22.6,00.0,32.3,25.5,16.7,0000.0,0007.65,0003.51,0002.81
2023-04-27 10:12:00,,0826.4,5.00,0.00,24.0,22.6,00.0,32.3,25.5,16.6,0000.0,0007.57,0003.50,0002.81
2023-04-27 10:13:00,,0826.4,5.00,0.00,24.0,22.6,00.0,32.3,25.6,16.7,0000.0,0007.66,0003.51,0002.81
2023-04-27 10:14:00,,0826.3,5.00,0.00,24.0,22.6,00.0,32.3,25.6,16.6,0000.0,0007.72,0003.52,0002.82
2023-04-27 10:15:00,,0826.3,4.99,0.00,24.0,22.6,00.0,32.3,25.5,16.5,0000.0,0008.11,0003.51,0002.82
2023-04-27 10:16:00,,0826.4,4.99,0.00,24.0,22.6,00.0,32.3,25.5,16.4,0000.0,0008.39,0003.51,0002.81
2023-04-27 10:17:00,,0826.4,5.00,0.00,24.0,22.6,00.0,32.3,25.5,16.8,0000.0,0008.54,0003.48,0002.79
2023-04-27 10:18:00,,0826.4,5.00,0.00,24.0,22.6,00.0,32.3,25.5,17.5,0000.0,0008.44,0003.46,0002.78
2023-04-27 10:19:00,,0826.4,5.00,0.00,24.0,22.6,00.0,32.3,25.5,17.9,0000.0,0008.33,0003.45,0002.80
2023-04-27 10:20:00,,0826.4,5.00,0.00,24.0,22.6,00.0,32.3,25.6,18.0,0000.0,0007.77,0003.44,0002.80
2023-04-27 10:21:00,,0826.4,5.00,0.00,24.0,22.6,00.0,32.3,25.6,18.2,0000.0,0007.66,0003.44,0002.81
2023-04-27 10:22:00,,0826.4,5.01,0.00,24.0,22.6,00.0,32.3,25.6,18.4,0000.0,0007.73,0003.45,0002.83
2023-04-27 10:23:00,,0826.4,5.00,0.00,24.0,22.6,00.0,32.3,25.6,18.2,0000.0,0008.10,0003.51,0002.84
2023-04-27 10:24:00,,0826.4,5.00,0.00,24.0,22.6,00.0,32.3,25.6,18.3,0000.0,0008.56,0003.54,0002.85
2023-04-27 10:25:00,,0826.4,4.99,0.00,24.0,22.6,00.0,32.3,25.6,18.3,0000.0,0008.65,0003.57,0002.87
2023-04-27 10:26:00,,0826.4,4.99,0.00,24.0,22.6,00.0,32.3,25.6,18.3,0000.0,0008.35,0003.60,0002.88
2023-04-27 10:27:00,,0826.4,5.00,0.00,24.0,22.6,00.0,32.3,25.6,18.5,0000.0,0008.04,0003.57,0002.89
2023-04-27 10:28:00,,0826.4,5.00,0.00,24.0,22.6,00.0,32.3,25.6,18.7,0000.0,0007.73,0003.59,0002.91
2023-04-27 10:29:00,,0826.4,5.00,0.00,24.0,22.6,00.0,32.3,25.6,18.8,0000.0,0007.76,0003.62,0002.94
2023-04-27 10:30:00,,0826.4,5.01,0.00,24.0,22.6,00.0,32.3,25.6,18.8,0000.0,0008.13,0003.66,0002.95
2023-04-27 10:31:00,,0826.4,5.01,0.00,24.0,22.5,00.0,32.3,25.6,19.0,0000.0,0008.30,0003.65,0002.96
2023-04-27 10:32:00,,0826.4,5.01,0.00,24.0,22.5,00.0,32.3,25.6,19.0,0000.0,0008.32,0003.66,0002.98
2023-04-27 10:33:00,,0826.3,5.00,0.00,24.0,22.5,00.0,32.3,25.6,18.8,0000.0,0008.22,0003.63,0002.98
2023-04-27 10:34:00,,0826.3,4.99,0.00,24.0,22.6,00.0,32.3,25.6,18.7,0000.0,0008.10,0003.57,0002.98
2023-04-27 10:35:00,,0826.4,4.99,0.00,24.0,22.6,00.0,32.3,25.6,18.6,0000.0,0007.60,0003.55,0002.98
2023-04-27 10:36:00,,0826.4,5.01,0.00,24.0,22.6,00.0,32.3,25.6,19.0,0000.0,0007.73,0003.58,0002.98
2023-04-27 10:37:00,,0826.3,5.00,0.00,24.0,22.5,00.0,32.3,25.6,19.0,0000.0,0008.02,0003.57,0002.99
2023-04-27 10:38:00,,0826.3,5.00,0.00,24.0,22.6,00.0,32.3,25.6,19.1,0000.0,0008.47,0003.66,0003.01
2023-04-27 10:39:00,,0826.3,5.01,0.00,24.0,22.6,00.0,32.3,25.6,19.0,0000.0,0008.52,0003.67,0003.00
2023-04-27 10:40:00,,0826.3,4.98,0.00,24.0,22.6,00.0,32.3,25.6,19.1,0000.0,0008.57,0003.65,0002.99
2023-04-27 10:41:00,,0826.4,4.99,0.00,24.0,22.6,00.0,32.3,25.6,19.6,0000.0,0008.43,0003.64,0002.98
2023-04-27 10:42:00,,0826.4,5.01,0.00,24.0,22.6,00.0,32.3,25.6,19.9,0000.0,0008.40,0003.62,0002.97
2023-04-27 10:43:00,,0826.4,5.01,0.00,24.0,22.6,00.0,32.4,25.6,20.1,0000.0,0008.46,0003.62,0002.97
2023-04-27 10:44:00,,0826.4,5.00,0.00,24.0,22.6,00.0,32.4,25.6,20.1,0000.0,0008.63,0003.66,0002.98
2023-04-27 10:45:00,,0826.4,5.01,0.00,24.0,22.6,00.0,32.4,25.6,20.0,0000.0,0008.81,0003.72,0002.99
2023-04-27 10:46:00,,0826.4,5.00,0.00,24.0,22.6,00.0,32.4,25.6,19.7,0000.0,0009.23,0003.77,0003.02
2023-04-27 10:47:00,,0826.4,4.99,0.00,24.0,22.6,00.0,32.4,25.6,19.5,0000.0,0010.64,0003.81,0003.02
2023-04-27 10:48:00,,0826.3,4.99,0.00,24.0,22.6,00.0,32.4,25.6,19.3,0000.0,0011.67,0003.87,0003.02
2023-04-27 10:49:00,,0826.3,4.99,0.00,24.0,22.6,00.0,32.4,25.6,19.3,0000.0,0012.47,0003.87,0003.02
2023-04-27 10:50:00,,0826.4,5.00,0.00,24.0,22.6,00.0,32.4,25.6,19.1,0000.0,0012.68,0003.90,0003.02
2023-04-27 10:51:00,,0826.4,5.01,0.00,24.0,22.6,00.0,32.4,25.6,19.1,0000.0,0012.70,0003.90,0003.02
2023-04-27 10:52:00,,0826.4,5.00,0.00,24.0,22.5,00.0,32.4,25.6,19.1,0000.0,0013.04,0003.94,0003.04
2023-04-27 10:53:00,,0826.4,4.99,0.00,24.0,22.5,00.0,32.4,25.6,20.1,0000.0,0013.21,0004.00,0003.05
2023-04-27 10:54:00,,0826.4,5.00,0.00,24.0,22.5,00.0,32.3,25.6,19.9,0000.0,0013.25,0004.04,0003.06
2023-04-27 10:55:00,,0826.4,5.00,0.00,24.0,22.5,00.0,32.4,25.6,19.6,0000.0,0013.62,0004.07,0003.05
2023-04-27 10:56:00,,0826.4,5.01,0.00,24.0,22.5,00.0,32.4,25.5,20.1,0000.0,0014.31,0004.07,0003.05
2023-04-27 10:57:00,,0826.2,4.99,0.00,24.0,22.5,00.0,32.3,25.5,20.1,0000.0,0014.19,0004.07,0003.05
2023-04-27 10:58:00,,0826.3,5.00,0.00,24.0,22.5,00.0,32.3,25.5,19.5,0000.0,0012.81,0004.03,0003.05
2023-04-27 10:59:00,,0826.3,5.00,0.00,24.0,22.5,00.0,32.3,25.6,19.6,0000.0,0012.07,0003.98,0003.07
